Location: Central Falls
(41.8900°N, 71.3929°W)
Time: 13:11:21
(UTC+00:00)

Courier 1B Rocket - Pass Details

Date: 12 December 2023
Orbit: 920 x 1202 km, 28.2° (Epoch: 01 March)

Event Time Altitude Azimuth Distance (km) Brightness Sun altitude
Rises 16:12:57 0° 249° (WSW) 3,904 8.3 24.7°
Reaches altitude 10° 16:16:17 10° 237° (WSW) 2,896 7.9 24.8°
Maximum altitude 16:21:49 25° 185° (S) 1,931 9.1 24.9°
Drops below altitude 10° 16:27:04 10° 133° (SE) 2,732 8.2 25.0°
Sets 16:30:07 0° 120° (ESE) 3,639 8.4 25.0°
